Regional Weather Roundup
Issued by NWS

Home | Current Version | Previous Version | Text Only | Print | Product List | Glossary On
Versions: 1 2 3 4 5 6 7 8 9 10 11 12 13 14 15 16 17 18 19 20 21 22 23 24 25 26 27 28 29 30 31 32 33 34 35 36 37 38 39 40 41 42 43 44 45 46 47 48 49 50
000
ASHW40 PHFO 261343
RWRHI

WEATHER ROUNDUP FOR HAWAII
NATIONAL WEATHER SERVICE HONOLULU HI
300 AM HST THU MAY 26 2016

THIS IS AN AUTOMATED REPORT THAT HAS NOT BEEN QUALITY CONTROLLED.

NOTE..."FAIR" INDICATES FEW OR NO CLOUDS BELOW 12,000 FEET WITH NO
SIGNIFICANT WEATHER AND/OR OBSTRUCTIONS TO VISIBILITY.

* - THESE SITES REPORT LIMITED FIELDS

HIZ001>004-261400-
KAUAI-NIIHAU-

CITY           SKY/WX    TMP DP  RH WIND       PRES   REMARKS
LIHUE APT      PTCLDY    73  70  90 NE12      30.06S
PORT ALLEN*      N/A     66 N/A N/A NE6         N/A
POIPU*           N/A     73 N/A N/A N3          N/A
PRINCEVILLE*     N/A     72 N/A N/A SE2         N/A
KOKOLE POINT*  NOT AVBL
MOLOAA DAIRY*    N/A     73  70  88 NE2G9       N/A
WAIMEA HTS*    NOT AVBL
PUU OPAE*        N/A     63  57  82 NE3         N/A
PUU LUA*       NOT AVBL
MAKAHA RIDGE*    N/A     66  64  94 CALM        N/A
$$

HIZ005>011-261400-
OAHU-

CITY           SKY/WX    TMP DP  RH WIND       PRES   REMARKS
HONOLULU       PTCLDY    72  70  93 N5        30.05F
KALAELOA       MOCLDY    73  70  90 NE5       30.06F
KANEOHE MCB    CLOUDY    76  68  76 SE5       30.03F
WHEELER FIELD  FAIR      70  69  95 SE2       30.06F
BELLOWS*         N/A    N/A N/A N/A SE2G8       N/A
KAHUKU*          N/A    N/A N/A N/A VRB1        N/A
WHEELER*         N/A    N/A N/A N/A NE2         N/A
WAIANAE HARBOR   N/A    N/A N/A N/A E5          N/A
DILLINGHAM*      N/A     81  79  94 MISG        N/A
KAHUKU TRN*      N/A     81  75  83 CALM        N/A
KAWAILOA*        N/A     68  64  88 NE3         N/A
KII*             N/A     73  68  83 SE5G13      N/A
MAKUA RANGE*     N/A     70  66  88 E3          N/A
OAHU FOREST NW NOT AVBL
SCHOFIELD BRK*   N/A     81  79  94 MISG        N/A
SCHOFIELD S*   NOT AVBL
WAIANAE VLY*   NOT AVBL
KUAOKALA*      NOT AVBL
HONOULIUULI*   NOT AVBL
MOKUOLOE IS*   NOT AVBL
PALEHUA*       NOT AVBL
WAIAWA PHB*    NOT AVBL
$$

HIZ012>013-261400-
MOLOKAI-

CITY           SKY/WX    TMP DP  RH WIND       PRES   REMARKS
MOLOKAI AIRPT  PTCLDY    70  65  84 E5        30.07F
KALAUPAPA      NOT AVBL
MAKAPULAPAI*   NOT AVBL
MOLOKAI 1*     NOT AVBL
PUU ALII*        N/A     58  58 100 NE3G12      N/A
$$

HIZ016-261400-
KAHOOLAWE-

CITY           SKY/WX    TMP DP  RH WIND       PRES   REMARKS
KAHOOLAWE*       N/A     66 N/A N/A NE1         N/A
HAKIOAWA*        N/A     85  84  98 MISG      30.48S HX 106
HONOKANAIA*      N/A     71  66  85 N6          N/A
KANELOA*         N/A     70  66  88 NE10G18   30.12F
KEALIALALO*    NOT AVBL
LUA MAKIKA*    NOT AVBL
$$

HIZ014>015-261400-
LANAI-

CITY           SKY/WX    TMP DP  RH WIND       PRES   REMARKS
LANAI CITY     FAIR      68  65  90 N7        30.10F
LANAI 1*       NOT AVBL
$$

HIZ017>028-261400-
MAUI-

CITY           SKY/WX    TMP DP  RH WIND       PRES   REMARKS
KAHULUI        PTCLDY    67  66  97 SE7       30.05F
KAPALUA-W MAUI NOT AVBL
HANA AIRPORT   NOT AVBL
HANA*            N/A     72 N/A N/A S3          N/A
HALEAKALA SUMM   N/A     39  39 100 SE6G22      N/A
MAALAEA BAY*     N/A     68 N/A N/A N3          N/A
HALEAKALA*     NOT AVBL
KAUPO GAP*     NOT AVBL
KULA 1*          N/A     48  48 100 E5          N/A
$$

HIZ023>026-261400-
BIG ISLAND OF HAWAII COAST AND LOWER SLOPES-

CITY           SKY/WX    TMP DP  RH WIND       PRES   REMARKS
KAILUA KONA    PTCLDY    74  70  87 SE9       30.03F
HILO           PTCLDY    71  67  87 CALM      30.07S
HONOKAA*         N/A     64 N/A N/A VRB1        N/A
KAWAIHAE MWT*    N/A     75 N/A N/A SE2         N/A
KAWAIHAE*        N/A     75 N/A N/A E2        30.04S
SOUTH POINT*     N/A     68 N/A N/A N10         N/A
UPOLU AIRPORT*   N/A    N/A N/A N/A SE8         N/A
KAMUELA*       MOSUNNY   57  55  94 CALM      30.15S
HAKALAU*         N/A     48  46  93 SW5G12      N/A
KALOKO-HONOKO* NOT AVBL
PALI 2*          N/A    N/A N/A N/A S3          N/A
KEALAKOMO*       N/A     72  68  88 N5G10       N/A
KAUPULEHU*     NOT AVBL
KAPAPALA*        N/A     63  62  95 N3          N/A
LOWER KAHUKU*    N/A     61 -40   1 N1G7        N/A
PUHE CS*         N/A     73  63  68 E3G9        N/A
PUHO CS*         N/A     71  65  80 E2          N/A
PTA KEAMUKU*     N/A     57  54  88 CALM        N/A
WAIKOLOA*      NOT AVBL
$$

HIZ027>028-261400-
BIG ISLAND OF HAWAII INTERIOR AND SUMMMITS-

CITY           SKY/WX    TMP DP  RH WIND       PRES   REMARKS
BRADSHAW FIELD MOCLDY    49  46  87 SE3       30.35F
MK VISITOR CEN   N/A     41  36  81 E2          N/A
MAUNA KEA*       N/A     34   3  27 CALM        N/A
MAUNA LOA*       N/A    N/A N/A N/A MISG        N/A
MAUNA LOA 1*   NOT AVBL
PTA KIPUKA*      N/A     63  63 100 S2G8        N/A
PTA RANGE 17*    N/A     54  48  82 S5G12       N/A
PTA WEST*        N/A     63  59  88 S8          N/A
NENE CABIN*      N/A     46  45  93 NE3         N/A
AHUMOA*        NOT AVBL
PTA PORTABLE*  NOT AVBL
PUU MALI*        N/A     50  48  93 S6          N/A
$$

HIC003-261400-
NORTHWEST ISLANDS-

CITY           SKY/WX    TMP DP  RH WIND       PRES   REMARKS
MIDWAY ISLAND  MOCLDY    72  70  94 NE5       30.11F
MIDWAY NOS*      N/A     72 N/A N/A MISG      30.09S
FRENCH FRIGATE NOT AVBL
$$

PHZ110>124-180-261400-
BUOY REPORTS

STATION/POSITION TIME  TEMP    WIND        PRES    WAVE   SWELL
                       AIR SEA DIR/SP/G            HT/PER HT/DIR
                 (UTC) (F)     (DEG/KT/KT) (MB)    (FT/S) (FT/D)
BUOY 51001       1300   78 80   70/  8/ 12 1017.5F
BUOY 51101       1150   76 78   80/  6/ 10 1018.6    4/ 8   5/ 80
BUOY 51100       NOT AVBL
BUOY 51002       1250   77 79   90/ 12/ 14 1016.4F   5/ 8   3/ 80
BUOY 51003       1250   78 80   80/  8/ 10 1016.5F   4/ 9   3/ 80
BUOY 51004       1250   78 79  100/ 10/ 12 1017.3S   5/ 8   5/ 90
BARBERS PT BUOY  NOT AVBL
WAIMEA BAY BUOY  1304      78                N/A     3/ 8
KAILUA BAY BUOY  1311      78                N/A     4/10   2/ 50
LANAI BUOY       1315      79                N/A     3/20   2/220
BARBERS PT 2     1303      80                N/A     3/13   2/200
PAUWELA MAUI     1309      78                N/A     4/ 8
HILO             1312      79                N/A     5/ 7   2/ 50
KANEOHE BAY BUOY 1306      77                N/A     4/ 8
HANALEI KAUAI    NOT AVBL
KAHULUI HARBOR   1300   72 78  140/  3/  4 1017.3F
HONOLULU HARBOR  1300   74 79   70/  1/  2 1018.4F
KILO NALU        NOT AVBL
HILO HARBOR      1300   70 78  180/  4/  5 1017.9F
MOKUOLOE         1200   73 80  200/  2/  3 1018.0F
NAWILIWILI       1300   74     240/  4/  4 1017.5F
WHOTS BUOY       NOT AVBL
BUOY 51028       NOT AVBL
$$

......................KEY........................................
  SKY/WX - SKY CONDITIONS/PRESENT WEATHER
  TMP    - TEMPERATURE IN FAHRENHEIT
  DWPT   - DEWPOINT IN FAHRENHEIT
  RH     - RELATIVE HUMIDITY IN PERCENT
  WIND   - DIRECTION AND SPEED /MPH FOR ISLANDS...KTS FOR BUOYS/
  PRES   - MEAN SEA LEVEL PRESSURE IN INCHES OF HG
  VSB    - VISIBILITY IN MILES
  HX     - HEAT INDEX
  WCI    - WIND CHILL INDEX
  VRB    - VARIABLE WIND DIRECTION
  N/A    - NOT AVAILABLE



USA.gov is the U.S. government's official web portal to all federal, state and local government web resources and services.